Location: Unspecified
(45.6324°N, 0.0000°E)
Time: 14:35:00
(UTC+00:00)

Altair - All Passes

Search period start: 04 April 2026 00:00
Search period end: 14 April 2026 00:00
Orbit: 1502 x 1682 km, 47.2° (Epoch: 29 March)

Date Brightness Start Highest point End Pass type
(mag) Time Alt. Az. Time Alt. Az. Time Alt. Az.
4 Apr - 00:42:13 10° W 00:46:20 14° WSW 00:50:27 10° SSW visible
4 Apr - 13:54:40 10° S 14:01:10 20° SE 14:07:31 10° E daylight
4 Apr - 15:54:52 10° SW 16:04:26 57° SSE 16:13:39 10° ENE daylight
4 Apr - 17:59:11 10° WSW 18:08:59 86° NNW 18:18:25 10° E daylight
4 Apr - 20:04:26 10° WNW 20:14:04 88° N 20:23:21 10° ESE visible
4 Apr - 22:09:26 10° WNW 22:18:23 51° SW 22:27:08 10° SE visible
5 Apr - 00:16:22 10° W 00:21:17 16° SW 00:26:11 10° SSW visible
5 Apr - 13:30:05 10° SSE 13:36:04 18° SE 13:41:56 10° E daylight
5 Apr - 15:29:44 10° SW 15:39:14 54° SE 15:48:26 10° ENE daylight
5 Apr - 17:33:52 10° WSW 17:43:43 87° NNW 17:53:11 10° ENE daylight
5 Apr - 19:39:09 10° W 19:48:49 86° NNE 19:58:08 10° ESE visible
5 Apr - 21:44:09 10° WNW 21:53:14 55° SW 22:02:04 10° SE visible
5 Apr - 23:50:41 10° W 23:56:14 18° SW 00:01:45 10° SSW visible
6 Apr - 13:05:37 10° SSE 13:10:59 16° SE 13:16:15 10° E daylight
6 Apr - 15:04:36 10° SW 15:14:03 51° SE 15:23:11 10° ENE daylight
6 Apr - 17:08:35 10° WSW 17:18:27 89° NNW 17:27:57 10° ENE daylight
6 Apr - 19:13:51 10° W 19:23:33 85° N 19:32:54 10° E visible
6 Apr - 21:18:52 10° WNW 21:28:03 58° SSW 21:37:00 10° SE visible
6 Apr - 23:25:05 10° W 23:31:10 20° SW 23:37:13 10° S visible
7 Apr - 12:41:17 10° SSE 12:45:54 14° ESE 12:50:26 10° E daylight
7 Apr - 14:39:31 10° SSW 14:48:52 48° SE 14:57:55 10° ENE daylight
7 Apr - 16:43:17 10° WSW 16:53:11 89° SSE 17:02:43 10° ENE daylight
7 Apr - 18:48:33 10° W 18:58:17 84° N 19:07:39 10° E visible
7 Apr - 20:53:36 10° WNW 21:02:53 62° SSW 21:11:54 10° SE visible
7 Apr - 22:59:32 10° W 23:06:06 22° SW 23:12:34 10° S visible
8 Apr - 12:17:12 10° SE 12:20:49 12° ESE 12:24:24 10° E daylight
8 Apr - 14:14:26 10° SSW 14:23:41 45° SE 14:32:39 10° ENE daylight
8 Apr - 16:17:59 10° WSW 16:27:56 86° SSE 16:37:29 10° ENE daylight
8 Apr - 18:23:14 10° W 18:33:01 83° N 18:42:25 10° E daylight
8 Apr - 20:28:19 10° WNW 20:37:42 65° SSW 20:46:47 10° SE visible
8 Apr - 22:34:04 10° W 22:41:02 24° SW 22:47:53 10° S visible
9 Apr - 11:53:41 10° SE 11:55:45 11° ESE 11:57:49 10° ESE daylight
9 Apr - 13:49:23 10° SSW 13:58:31 42° SE 14:07:22 10° ENE daylight
9 Apr - 15:52:42 10° WSW 16:02:41 84° SSE 16:12:15 10° ENE daylight
9 Apr - 17:57:55 10° W 18:07:44 82° N 18:17:10 10° E daylight
9 Apr - 20:03:02 10° WNW 20:12:31 69° SSW 20:21:39 10° SE visible
9 Apr - 22:08:37 10° W 22:15:57 27° SW 22:23:09 10° S visible
10 Apr - 13:24:22 10° SSW 13:33:21 39° SE 13:42:05 10° ENE daylight
10 Apr - 15:27:26 10° WSW 15:37:25 81° SSE 15:47:02 10° ENE daylight
10 Apr - 17:32:36 10° W 17:42:28 82° N 17:51:56 10° E daylight
10 Apr - 19:37:45 10° WNW 19:47:18 72° SSW 19:56:30 10° SE visible
10 Apr - 21:43:12 10° WNW 21:50:51 29° SW 21:58:21 10° S visible
11 Apr - 12:59:23 10° SSW 13:08:11 36° SE 13:16:46 10° ENE daylight
11 Apr - 15:02:10 10° WSW 15:12:10 79° SSE 15:21:48 10° ENE daylight
11 Apr - 17:07:17 10° W 17:17:12 81° N 17:26:41 10° E daylight
11 Apr - 19:12:28 10° WNW 19:22:05 75° SSW 19:31:21 10° ESE visible
11 Apr - 21:17:49 10° WNW 21:25:45 32° SW 21:33:31 10° SSE visible
12 Apr - 12:34:26 10° SSW 12:43:02 34° SE 12:51:26 10° ENE daylight
12 Apr - 14:36:55 10° WSW 14:46:55 76° SSE 14:56:33 10° ENE daylight
12 Apr - 16:41:57 10° W 16:51:54 81° N 17:01:26 10° E daylight
12 Apr - 18:47:10 10° WNW 18:56:52 78° SSW 19:06:10 10° ESE daylight
12 Apr - 20:52:27 10° WNW 21:00:39 34° SW 21:08:38 10° SSE visible
13 Apr - 12:09:31 10° S 12:17:53 31° SE 12:26:04 10° ENE daylight
13 Apr - 14:11:41 10° SW 14:21:40 73° SSE 14:31:19 10° ENE daylight
13 Apr - 16:16:38 10° W 16:26:37 82° N 16:36:11 10° E daylight
13 Apr - 18:21:53 10° WNW 18:31:38 81° SSW 18:41:00 10° ESE daylight
13 Apr - 20:27:05 10° WNW 20:35:32 37° SW 20:43:43 10° SSE visible
